Weather Roundup
Issued by NWS Chicago, IL

Home | Current Version | Previous Version | Text Only | Print | Product List | Glossary On
Versions: 1 2 3 4 5 6 7 8 9 10 11 12 13 14 15 16 17 18 19 20 21 22 23 24 25 26 27 28 29 30 31 32 33 34 35 36 37 38 39 40 41 42 43 44 45 46 47 48 49 50
000
NZUS59 KLOT 052208
HRRLOT

CHICAGO AREA WEATHER ROUNDUP
NATIONAL WEATHER SERVICE CHICAGO/ROMEOVILLE IL
500 PM CDT THU MAY 05 2016

NOTE: "FAIR" INDICATES FEW OR NO CLOUDS BELOW 12,000 FEET WITH NO
SIGNIFICANT WEATHER AND/OR OBSTRUCTIONS TO VISIBILITY.

* THESE STATIONS ARE NOT UNDER NWS QUALITY CONTROL. THEY ALSO MAY NOT
  REPORT WEATHER SUCH AS PRECIPITATION OR FOG.

ILZ005-006-012>014-019>023-052300-
NORTHEAST ILLINOIS

CITY           SKY/WX    TMP DP  RH WIND       PRES   REMARKS
OHARE          MOSUNNY   59  40  49 E8        29.97F
MIDWAY         MOSUNNY   58  38  47 NE9       29.98F
AURORA         MOSUNNY   66  44  45 W10       29.98S
LANSING*       SUNNY     55  40  58 N9        29.99F
JOLIET*        MOSUNNY   67  43  41 NW6       29.97S
WAUKEGAN       SUNNY     52  39  61 E8        29.98S
DUPAGE AIRPORT PTSUNNY   66  42  41 MISG      29.96F
WHEELING       SUNNY     55  39  54 NE8       29.99F
KANKAKEE*      SUNNY     64  43  46 N9        29.98S
MORRIS*        SUNNY     66  40  39 CALM      29.96S
LEWIS AIRPORT* MOSUNNY   63  40  42 CALM      29.97S
$$

WIZ051-052-058>065-066-070>072-052300-
SOUTHEAST WISCONSIN

CITY           SKY/WX    TMP DP  RH WIND       PRES   REMARKS
MILWAUKEE      MOSUNNY   52  38  58 E8        29.99S
KENOSHA*       SUNNY     55  40  56 E9        29.98S
RACINE*        SUNNY     54  39  57 NE8       29.99F
BURLINGTON     SUNNY     64  33  31 NW8       29.97S
WAUKESHA       SUNNY     63  36  36 NW9       29.98S
WEST BEND      SUNNY     63  32  31 N12       29.97S
$$

INZ001>003-010>013-019-020-052300-
NORTHWEST INDIANA

CITY           SKY/WX    TMP DP  RH WIND       PRES   REMARKS
GARY*          NOT AVBL
MICHIGAN CITY* NOT AVBL
RENSSELAER*    NOT AVBL
VALPARAISO     SUNNY     54  42  64 N15G22    29.98S
$$

LMZ740>746-052300-
SOUTHERN LAKE MICHIGAN

STATION/POSITION TIME  SKY/WX   TEMP WIND        PRES    VSBY
                                AIR  DIR/SP/G
                 (UTC)          (F)  (DEG/KT/KT) (MB)    (MI)
HARRISON CRIB    2100            46   30/ 15/ 17   N/A
BURNHAM HARBOR   2200            49   10/  7/ 11   N/A
CALUMET HARBOR   2100            48  350/ 10/ 13 1015.5F
BURNS HARBOR     2118            44   20/  7/ 10 1016.6F
MICHIGAN CITY    2100            45  340/  8/  9   N/A
$$

ABBREVIATIONS USED IN REMARKS
   TC - TEMPERATURE IN CELSIUS
  WCI - WIND CHILL INDEX
   HX - HEAT INDEX
  VSB - VISIBILITY
$$




USA.gov is the U.S. government's official web portal to all federal, state and local government web resources and services.